Khon Kaen, Thailand

3:21 PM ICT on February 14, 2016 (GMT +0700)
Khon Kaen

Weather History for VTUK - December, 2012

Change the Weather History Date:

Tuesday, December 25, 2012

  Actual Average Record
Temperature  
Mean Temperature 74 °F -  
Max Temperature 85 °F 87 °F - ()
Min Temperature 62 °F 61 °F - ()
Cooling Degree Days 8    
Growing Degree Days 24 (Base 50)    
Moisture  
Dew Point 61 °F    
Average Humidity 64    
Maximum Humidity 89    
Minimum Humidity 32    
Precipitation  
Precipitation 0.00 in 0.01 in - ()
Sea Level Pressure  
Sea Level Pressure 29.94 in    
Wind  
Wind Speed 4 mph ()    
Max Wind Speed 9 mph    
Max Gust Speed -    
Visibility 5.7 miles    
Events      
T = Trace of Precipitation, MM = Missing Value Source: Averaged Metar Reports

Daily Weather History Graph

Daily Weather History Graph

Search for Another Location

Airport or City:

Trip Planner

Search our weather history database for the weather conditions in past years. The results will help you decide how hot, cold, wet, or windy it might be!

Date:

Astronomy

Dec. 25, 2012 Rise Set
Actual Time 6:34 AM ICT 5:43 PM ICT
Civil Twilight 6:10 AM ICT 6:06 PM ICT
Nautical Twilight 5:43 AM ICT 6:33 PM ICT
Astronomical Twilight 5:17 AM ICT 7:00 PM ICT
Moon 3:21 PM ICT (12/25) 3:47 AM ICT (12/25)
Length of Visible Light 11h 56m
Length of Day
11h 09m
Waxing Gibbous, 91% of the Moon is Illuminated
Dec 25
Waxing Gibbous
Dec 28
Full
Jan 5
Last Quarter
Jan 12
New
Jan 19
First Quarter

Hourly Weather History & Observations

Time (ICT) Temp. Heat Index Dew Point Humidity Pressure Visibility Wind Dir Wind Speed Gust Speed Precip Events Conditions
1:00 AM 66 °F - 57 °F 65% 30.01 in 6 mi NE 4.6 mph - -   Clear
4:00 AM 60.8 °F - 57.2 °F 88% 29.95 in - Calm Calm - N/A   Clear
5:00 AM 60.8 °F - 57.2 °F 88% 29.95 in - North 2.3 mph - N/A   Clear
6:00 AM 62.6 °F - 59.0 °F 88% 29.95 in 6.2 mi Calm Calm - N/A   Mostly Cloudy
7:00 AM 63 °F - 57 °F 76% 29.98 in 4 mi Calm Calm - -   Mist
7:00 AM 62.6 °F - 59.0 °F 88% 29.98 in 3.7 mi Calm Calm - N/A   Mostly Cloudy
8:00 AM 66.2 °F - 59.0 °F 78% 30.01 in 3.7 mi Variable 2.3 mph - N/A   Mostly Cloudy
9:00 AM 69.8 °F - 60.8 °F 73% 30.04 in 6.2 mi NNE 5.8 mph - N/A   Mostly Cloudy
10:00 AM 75.2 °F - 60.8 °F 61% 30.01 in 6.2 mi ENE 6.9 mph - N/A   Mostly Cloudy
11:00 AM 77.0 °F - 62.6 °F 61% 29.98 in 6.2 mi ENE 6.9 mph - N/A   Scattered Clouds
12:00 PM 80.6 °F 81.5 °F 60.8 °F 51% 29.95 in - Variable 5.8 mph - N/A   Clear
1:00 PM 82 °F - 57 °F 32% 29.90 in 7 mi NE 9.2 mph - -   Clear
1:00 PM 82.4 °F 92.4 °F 78.8 °F 89% 29.92 in - NE 9.2 mph - N/A   Clear
2:00 PM 82.4 °F 82.9 °F 60.8 °F 48% 29.89 in 6.2 mi Variable 5.8 mph - N/A   Mostly Cloudy
3:00 PM 84.2 °F 84.4 °F 60.8 °F 45% - - NE 8.1 mph - N/A   Clear
4:00 PM 84.2 °F 84.4 °F 60.8 °F 45% 29.83 in - East 6.9 mph - N/A   Clear
5:00 PM 82.4 °F 82.9 °F 60.8 °F 48% 29.86 in 6.2 mi East 5.8 mph - N/A   Mostly Cloudy
6:00 PM 80.6 °F 81.5 °F 60.8 °F 51% 29.86 in 6.2 mi NE 4.6 mph - N/A   Mostly Cloudy
7:00 PM 80 °F - 62 °F 44% 29.87 in 6 mi NNE 3.5 mph - -   Scattered Clouds
7:00 PM 78.8 °F - 60.8 °F 54% 29.89 in 6.2 mi NNE 4.6 mph - N/A   Mostly Cloudy
8:00 PM 77.0 °F - 62.6 °F 61% 29.92 in 6.2 mi North 6.9 mph - N/A   Mostly Cloudy